DW1384 Weather Reports


time (UTC)temp
C
wind
direction
speed
KPH
gust
KPH
rain 1hr
cm
rain 24hr
cm
rain mn
cm
humidity
%
barometer
mb
20260905042702 11 149 0.0 0.0 0.00 0.00 0.00 91 1018.0
20260905042156 11 149 0.0 0.0 0.00 0.00 0.00 91 1017.8
20260905041651 11 149 0.0 0.0 0.00 0.00 0.00 91 1017.7
20260905041629 11 149 0.0 0.0 0.00 0.00 0.00 91 1017.7
20260905040638 11 149 0.0 0.0 0.00 0.00 0.00 91 1017.8
20260905040133 11 149 0.0 0.0 0.00 0.00 0.00 90 1017.6
20260905035626 11 149 0.0 0.0 0.00 0.00 0.00 91 1017.6
20260905035120 11 149 0.0 0.0 0.00 0.00 0.00 90 1017.6
20260905034614 11 149 0.0 0.0 0.00 0.00 0.00 90 1017.7
20260905034108 11 149 0.0 0.0 0.00 0.00 0.00 91 1017.7
20260905033602 11 149 0.0 0.0 0.00 0.00 0.00 91 1017.6
20260905033056 11 149 0.0 0.0 0.00 0.00 0.00 91 1017.7
20260905032550 11 149 0.0 0.0 0.00 0.00 0.00 91 1017.6
20260905032045 11 149 0.0 0.0 0.00 0.00 0.00 91 1017.6
20260905031538 11 149 0.0 0.0 0.00 0.00 0.00 90 1017.7
20260905031034 11 149 0.0 0.0 0.00 0.00 0.00 90 1017.7
20260905030527 11 149 0.0 0.0 0.00 0.00 0.00 90 1017.5
20260905030020 11 149 0.0 0.0 0.00 0.00 0.00 90 1017.6
20260905025955 11 149 0.0 0.0 0.00 0.00 0.00 90 1017.5
20260905025010 11 149 0.0 0.0 0.00 0.00 0.00 90 1017.4
20260905024515 11 149 0.0 0.0 0.00 0.00 0.00 90 1017.4
20260905023957 11 149 0.0 0.0 0.00 0.00 0.00 90 1017.4
20260905023451 11 149 0.0 0.0 0.00 0.00 0.00 90 1017.4
20260905022944 11 149 0.0 0.0 0.00 0.00 0.00 90 1017.3
20260905022439 11 149 0.0 0.0 0.00 0.00 0.00 90 1017.2
20260905021933 11 149 0.0 0.0 0.00 0.00 0.00 90 1017.2
20260905021429 12 149 0.0 0.0 0.00 0.00 0.00 90 1017.3
20260905021146 12 149 0.0 0.0 0.00 0.00 0.00 90 1017.1
20260905020414 12 148 0.0 0.0 0.00 0.00 0.00 90 1017.1
20260905015912 12 148 0.0 0.0 0.00 0.00 0.00 90 1017.2
20260905015622 12 148 0.0 0.0 0.00 0.00 0.00 90 1017.2
20260905014856 12 148 0.0 0.0 0.00 0.00 0.00 90 1017.2
20260905014350 12 148 0.0 0.0 0.00 0.00 0.00 90 1017.2
20260905013845 12 206 0.0 0.0 0.00 0.00 0.00 90 1017.2
20260905013341 12 207 0.0 0.0 0.00 0.00 0.00 90 1017.2
20260905012832 12 214 0.0 0.0 0.00 0.00 0.00 90 1017.1
20260905012327 12 214 0.0 0.0 0.00 0.00 0.00 90 1017.2
20260905011820 12 214 0.0 0.0 0.00 0.00 0.00 90 1017.1
20260905011319 12 214 0.0 0.0 0.00 0.00 0.00 90 1017.1
20260905010819 12 214 0.0 0.0 0.00 0.00 0.00 90 1017.1
20260905010317 12 214 0.0 0.0 0.00 0.00 0.00 90 1017.1
20260905005815 12 215 0.0 0.0 0.00 0.00 0.00 90 1017.1
20260905005312 12 215 0.0 0.0 0.00 0.00 0.00 90 1017.1
20260905005032 13 215 0.0 0.0 0.00 0.00 0.00 90 1017.1
20260905004312 13 215 0.0 0.0 0.00 0.00 0.00 89 1017.1
20260905003812 13 215 0.0 0.0 0.00 0.00 0.00 90 1017.1
20260905003312 13 215 0.0 0.0 0.00 0.00 0.00 89 1017.1
20260905002811 13 215 0.0 0.0 0.00 0.00 0.00 90 1017.1
20260905002309 13 216 0.0 0.0 0.00 0.00 0.00 90 1017.1
20260905001809 13 216 0.0 0.0 0.00 0.00 0.00 89 1017.1
20260905001311 13 228 0.0 0.0 0.00 0.00 0.00 89 1017.1
20260905000807 13 228 0.0 0.0 0.00 0.00 0.00 89 1017.0
20260905000527 13 228 0.0 0.0 0.00 0.00 0.00 89 1017.0
20260904235803 13 231 0.0 0.0 0.00 0.00 0.00 89 1017.0
20260904235522 14 232 0.0 0.0 0.00 0.00 0.00 89 1016.8
20260904234802 14 232 0.0 0.0 0.00 0.00 0.00 89 1017.0
20260904234300 14 232 0.0 0.0 0.00 0.00 0.00 89 1016.8
20260904233758 14 232 0.0 0.0 0.00 0.00 0.00 89 1016.7
20260904233253 14 232 0.0 0.0 0.00 0.00 0.00 89 1016.6
20260904232748 14 241 0.0 0.0 0.00 0.00 0.00 89 1016.6
20260904232242 15 242 0.0 0.0 0.00 0.00 0.00 89 1016.6
20260904231742 15 245 0.0 0.0 0.00 0.00 0.00 89 1016.6
20260904231505 15 245 0.0 0.0 0.00 0.00 0.00 89 1016.5
20260904230740 15 245 0.0 0.0 0.00 0.00 0.00 89 1016.6
20260904230245 15 246 0.0 0.0 0.00 0.00 0.00 89 1016.5
20260904225742 15 252 0.0 0.0 0.00 0.00 0.00 89 1016.6
20260904225240 15 252 0.0 0.0 0.00 0.00 0.00 89 1016.5
20260904224958 15 257 0.0 0.0 0.00 0.00 0.00 89 1016.4
20260904224236 -17 0.0 0.0 0.00 0.00 0.00 1016.3
20260904223918 -17 0.0 0.0 0.00 0.00 0.00 1016.3
20260904223410 -17 0.0 0.0 0.00 0.00 0.00 1016.4
20260904222643 -17 0.0 0.0 0.00 0.00 0.00 1016.4
20260904222053 -17 0.0 0.0 0.00 0.00 0.00 1016.4
20260904221552 15 159 0.0 0.0 0.00 0.00 0.00 88 1016.3
20260904221223 15 159 0.0 0.0 0.00 0.00 0.00 88 1016.2
20260904220502 15 159 0.0 0.0 0.00 0.00 0.00 88 1016.3
20260904215958 15 159 0.0 0.0 0.00 0.00 0.00 88 1016.2
20260904215458 15 159 0.0 0.0 0.00 0.00 0.00 88 1016.1
20260904214958 15 159 0.0 0.0 0.00 0.00 0.00 88 1016.0
20260904214458 15 159 0.0 0.0 0.00 0.00 0.00 88 1016.1
20260904214217 15 168 0.0 0.0 0.00 0.00 0.00 88 1016.0
20260904213456 15 161 0.0 0.0 0.00 0.00 0.00 88 1016.0
20260904212956 15 161 0.0 0.0 0.00 0.00 0.00 88 1016.0
20260904212726 15 161 0.0 0.0 0.00 0.00 0.00 88 1015.6
20260904211957 15 161 0.0 0.0 0.00 0.00 0.00 88 1015.6
20260904211456 15 198 0.0 0.0 0.00 0.00 0.00 88 1015.8
20260904210956 15 195 0.0 0.0 0.00 0.00 0.00 88 1015.7
20260904210457 15 195 0.0 0.0 0.00 0.00 0.00 88 1015.8
20260904205955 15 222 0.0 0.0 0.00 0.00 0.00 88 1015.6
20260904205454 15 222 0.0 0.0 0.00 0.00 0.00 88 1015.6
20260904204954 15 222 0.0 0.0 0.00 0.00 0.00 88 1015.7
20260904204453 15 222 0.0 0.0 0.00 0.00 0.00 88 1015.6
20260904204215 15 217 0.0 0.0 0.00 0.00 0.00 88 1015.4
20260904203453 15 226 0.0 0.0 0.00 0.00 0.00 88 1015.4
20260904202953 15 224 0.0 0.0 0.00 0.00 0.00 88 1015.2
20260904202450 15 184 0.0 0.0 0.00 0.00 0.00 88 1015.3
20260904201949 15 183 0.0 0.0 0.00 0.00 0.00 88 1015.4
20260904201445 15 228 0.0 0.0 0.00 0.00 0.00 88 1015.5
20260904200937 15 247 0.0 0.0 0.00 0.00 0.00 88 1015.6
20260904200431 15 244 0.0 0.0 0.00 0.00 0.00 88 1015.4
20260904195927 15 195 0.0 0.0 0.00 0.00 0.00 87 1015.3
20260904195425 15 195 0.0 0.0 0.00 0.00 0.00 87 1015.4
20260904195212 16 284 0.0 0.0 0.00 0.00 0.00 87 1015.3
20260904195108 16 294 0.0 0.0 0.00 0.00 0.00 87 1015.4
20260904193845 16 301 0.0 0.0 0.00 0.00 0.00 87 1015.3
20260904193222 16 255 0.0 0.0 0.00 0.00 0.00 87 1015.1
20260904192720 16 251 0.0 0.0 0.00 0.00 0.00 87 1015.1
20260904192218 16 264 0.0 0.0 0.00 0.00 0.00 87 1015.0
20260904191715 16 292 0.0 0.0 0.00 0.00 0.00 87 1015.1
20260904191216 16 299 0.0 0.0 0.00 0.00 0.00 87 1015.2
20260904190938 15 298 0.0 0.0 0.00 0.00 0.00 87 1015.0
20260904190214 15 286 0.0 0.0 0.00 0.00 0.00 87 1014.9
20260904185712 16 338 0.0 0.0 0.00 0.00 0.00 87 1014.6
20260904185210 16 207 0.0 0.0 0.00 0.00 0.00 87 1014.5
20260904184708 15 207 0.0 0.0 0.00 0.00 0.00 87 1014.4
20260904184209 15 188 0.0 0.0 0.00 0.00 0.00 87 1014.5
20260904183704 15 193 0.0 0.0 0.00 0.00 0.00 87 1014.4
20260904183202 15 197 0.0 0.0 0.00 0.00 0.00 87 1014.1
20260904182657 16 178 0.0 0.0 0.00 0.00 0.00 87 1014.1
20260904182149 16 178 0.0 0.0 0.00 0.00 0.00 87 1014.0
20260904181910 16 195 0.0 0.0 0.00 0.00 0.00 87 1014.0
20260904181137 16 236 0.0 0.0 0.00 0.00 0.00 87 1013.9
20260904180634 16 245 0.0 0.0 0.00 0.00 0.00 87 1014.0
20260904180131 16 265 0.0 0.0 0.00 0.00 0.00 87 1013.8
20260904175630 16 226 0.0 0.0 0.00 0.00 0.00 87 1013.8
20260904175128 16 179 0.0 0.0 0.00 0.00 0.00 87 1013.8
20260904174626 16 244 0.0 0.0 0.00 0.00 0.00 87 1013.6
20260904174352 16 280 0.0 0.0 0.00 0.00 0.00 87 1013.6
20260904173639 16 329 0.0 0.0 0.00 0.00 0.00 87 1013.4
20260904173124 16 301 0.0 0.0 0.00 0.00 0.00 87 1013.5
20260904172622 17 338 0.0 0.0 0.00 0.00 0.00 87 1013.1
20260904172347 17 305 0.0 0.0 0.00 0.00 0.00 87 1013.1
20260904171622 17 343 0.0 0.0 0.00 0.00 0.00 86 1013.2
20260904171122 17 297 0.0 0.0 0.00 0.00 0.00 86 1012.9
20260904170622 17 330 0.0 0.0 0.00 0.00 0.00 86 1012.7
20260904170120 17 301 0.0 0.0 0.00 0.00 0.00 86 1012.8
20260904165836 17 296 0.0 0.0 0.00 0.00 0.00 86 1012.8
20260904165118 17 320 0.0 0.0 0.00 0.00 0.00 85 1012.8
20260904164617 18 330 0.0 0.0 0.00 0.00 0.00 85 1012.7
20260904164117 18 0 0.0 0.0 0.00 0.00 0.00 84 1012.3
20260904163617 18 293 0.0 0.0 0.00 0.00 0.00 84 1012.4
20260904163114 19 353 0.0 0.0 0.00 0.00 0.00 83 1012.4
20260904162605 20 273 0.0 0.0 0.00 0.00 0.00 83 1012.0
20260904162102 21 319 0.0 0.0 0.00 0.00 0.00 82 1012.0
20260904161554 21 308 0.0 0.0 0.00 0.00 0.00 79 1012.0
20260904161047 22 329 0.0 0.0 0.00 0.00 0.00 76 1011.9
20260904160541 23 343 0.0 0.0 0.00 0.00 0.00 73 1011.3
20260904160048 23 278 0.0 0.0 0.00 0.00 0.00 72 1011.3
20260904155530 23 348 0.0 0.0 0.00 0.00 0.00 71 1011.2
20260904155023 23 254 0.0 0.0 0.00 0.00 0.00 71 1011.2
20260904154518 23 293 0.0 0.0 0.00 0.00 0.00 71 1011.3
20260904154011 23 272 0.0 0.0 0.00 0.00 0.00 71 1011.3
20260904153731 23 259 0.0 0.0 0.00 0.00 0.00 71 1011.2
20260904152959 23 263 0.0 0.0 0.00 0.00 0.00 70 1011.3
20260904152456 23 249 0.0 0.0 0.00 0.00 0.00 70 1011.2
20260904151947 23 337 0.0 0.0 0.00 0.00 0.00 70 1011.3
20260904151441 23 263 0.0 0.0 0.00 0.00 0.00 70 1011.3
20260904151200 23 276 0.0 0.0 0.00 0.00 0.00 69 1011.4
20260904150430 24 299 0.0 0.0 0.00 0.00 0.00 69 1011.5
20260904150149 24 149 0.0 0.0 0.00 0.00 0.00 69 1011.4
20260904145417 23 215 0.0 0.0 0.00 0.00 0.00 69 1011.6
20260904144911 23 255 0.0 0.0 0.00 0.00 0.00 69 1011.5
20260904144856 23 278 0.0 0.0 0.00 0.00 0.00 69 1011.6
20260904143859 23 286 0.0 0.0 0.00 0.00 0.00 68 1011.6
20260904143616 24 247 0.0 0.0 0.00 0.00 0.00 68 1011.7
20260904142854 24 283 0.0 0.0 0.00 0.00 0.00 68 1011.8
20260904142618 24 303 0.0 0.0 0.00 0.00 0.00 68 1011.7
20260904141853 24 247 0.0 0.0 0.00 0.00 0.00 68 1011.7
20260904141354 24 264 0.0 0.0 0.00 0.00 0.00 69 1011.6
20260904141117 24 321 0.0 0.0 0.00 0.00 0.00 69 1011.8
20260904140353 24 273 0.0 0.0 0.00 0.00 0.00 69 1011.7
20260904140113 24 130 0.0 0.0 0.00 0.00 0.00 68 1011.9
20260904135354 24 295 0.0 0.0 0.00 0.00 0.00 69 1011.6
20260904134853 23 247 0.0 0.0 0.00 0.00 0.00 69 1011.7
20260904134353 23 348 0.0 0.0 0.00 0.00 0.00 70 1011.7
20260904133854 23 157 0.0 0.0 0.00 0.00 0.00 70 1011.6
20260904133353 23 52 0.0 0.0 0.00 0.00 0.00 70 1011.6
20260904132853 23 249 0.0 0.0 0.00 0.00 0.00 70 1011.6
20260904132353 23 153 0.0 0.0 0.00 0.00 0.00 71 1011.6
20260904131851 23 252 0.0 0.0 0.00 0.00 0.00 72 1011.6
20260904131352 23 204 0.0 0.0 0.00 0.00 0.00 72 1011.6
20260904131332 23 241 0.0 0.0 0.00 0.00 0.00 72 1011.6
20260904130349 23 358 0.0 0.0 0.00 0.00 0.00 73 1011.7
20260904125850 23 174 0.0 0.0 0.00 0.00 0.00 73 1011.9
20260904125350 23 327 0.0 0.0 0.00 0.00 0.00 75 1011.8
20260904124850 23 348 0.0 0.0 0.00 0.00 0.00 75 1011.9
20260904124557 23 321 0.0 0.0 0.00 0.00 0.00 75 1012.1
20260904124443 23 335 0.0 0.0 0.00 0.00 0.00 75 1012.0
20260904123347 23 332 0.0 0.0 0.00 0.00 0.00 76 1011.9
20260904122847 23 72 0.0 0.0 0.00 0.00 0.00 76 1012.0
20260904122348 23 237 0.0 0.0 0.00 0.00 0.00 76 1011.9
20260904121848 23 13 0.0 0.0 0.00 0.00 0.00 76 1012.0
20260904121601 23 23 0.0 0.0 0.00 0.00 0.00 76 1012.2
20260904120844 23 317 0.0 0.0 0.00 0.00 0.00 76 1012.1
20260904120343 23 131 0.0 0.0 0.00 0.00 0.00 77 1012.1
20260904115843 22 173 0.0 0.0 0.00 0.00 0.00 77 1012.1
20260904115344 22 207 0.0 0.0 0.00 0.00 0.00 77 1012.1
20260904114844 22 220 0.0 0.0 0.00 0.00 0.00 77 1012.0
20260904114341 22 353 0.0 0.0 0.00 0.00 0.00 77 1012.0
20260904113842 22 58 0.0 0.0 0.00 0.00 0.00 77 1012.0
20260904113340 22 116 0.0 0.0 0.00 0.00 0.00 78 1012.0
20260904112839 22 260 0.0 0.0 0.00 0.00 0.00 78 1012.1
20260904112336 22 269 0.0 0.0 0.00 0.00 0.00 78 1012.1
20260904111836 22 276 0.0 0.0 0.00 0.00 0.00 79 1012.2
20260904111335 22 274 0.0 0.0 0.00 0.00 0.00 80 1012.2
20260904110834 22 323 0.0 0.0 0.00 0.00 0.00 81 1012.3
20260904110336 22 85 0.0 0.0 0.00 0.00 0.00 82 1012.3
20260904105833 22 257 0.0 0.0 0.00 0.00 0.00 82 1012.3
20260904105333 22 294 0.0 0.0 0.00 0.00 0.00 83 1012.3
20260904104833 22 184 0.0 0.0 0.00 0.00 0.00 84 1012.4
20260904104332 21 213 0.0 0.0 0.00 0.00 0.00 85 1012.4
20260904103834 21 206 0.0 0.0 0.00 0.00 0.00 86 1012.5
20260904103332 21 112 0.0 0.0 0.00 0.00 0.00 87 1012.4
20260904103052 20 181 0.0 0.0 0.00 0.00 0.00 87 1012.5
20260904102334 20 153 0.0 0.0 0.00 0.00 0.00 87 1012.8
20260904101832 20 158 0.0 0.0 0.00 0.00 0.00 87 1012.9
20260904101332 20 207 0.0 0.0 0.00 0.00 0.00 87 1012.9
20260904100831 20 141 0.0 0.0 0.00 0.00 0.00 87 1013.1
20260904100331 20 140 0.0 0.0 0.00 0.00 0.00 87 1013.0
20260904095832 20 126 0.0 0.0 0.00 0.00 0.00 87 1013.0
20260904095331 20 126 0.0 0.0 0.00 0.00 0.00 87 1013.0
20260904094831 20 121 0.0 0.0 0.00 0.00 0.00 86 1013.1
20260904094333 20 177 0.0 0.0 0.00 0.00 0.00 86 1013.3
20260904093831 20 176 0.0 0.0 0.00 0.00 0.00 86 1013.3
20260904093330 20 198 0.0 0.0 0.00 0.00 0.00 86 1013.3
20260904092830 20 198 0.0 0.0 0.00 0.00 0.00 85 1013.4
20260904092605 20 201 0.0 0.0 0.00 0.00 0.00 85 1013.4
20260904091828 20 224 0.0 0.0 0.00 0.00 0.00 85 1013.4
20260904091327 20 200 0.0 0.0 0.00 0.00 0.00 85 1013.4
20260904091054 20 151 0.0 0.0 0.00 0.00 0.00 84 1013.3
20260904090548 20 174 0.0 0.0 0.00 0.00 0.00 84 1013.3
20260904085830 20 171 0.0 0.0 0.00 0.00 0.00 84 1013.3
20260904085330 20 189 0.0 0.0 0.00 0.00 0.00 84 1013.3
20260904084828 20 268 0.0 0.0 0.00 0.00 0.00 84 1013.4
20260904084327 20 245 0.0 0.0 0.00 0.00 0.00 84 1013.4
20260904083826 20 209 0.0 0.0 0.00 0.00 0.00 84 1013.4
20260904083324 20 219 0.0 0.0 0.00 0.00 0.00 84 1013.4
20260904082824 20 151 0.0 0.0 0.00 0.00 0.00 84 1013.3
20260904082324 20 22 0.0 0.0 0.00 0.00 0.00 84 1013.4
20260904081824 20 226 0.0 0.0 0.00 0.00 0.00 84 1013.4
20260904081319 20 244 0.0 0.0 0.00 0.00 0.00 84 1013.4
20260904080819 20 188 0.0 0.0 0.00 0.00 0.00 84 1013.5
20260904080319 20 226 0.0 0.0 0.00 0.00 0.00 84 1013.5
20260904080043 20 168 0.0 0.0 0.00 0.00 0.00 84 1013.5
20260904075801 20 178 0.0 0.0 0.00 0.00 0.00 84 1013.7
20260904074819 20 343 0.0 0.0 0.00 0.00 0.00 84 1013.8
20260904074642 20 315 0.0 0.0 0.00 0.00 0.00 84 1013.8
20260904074544 20 311 0.0 0.0 0.00 0.00 0.00 84 1013.8
20260904073319 20 259 0.0 0.0 0.00 0.00 0.00 84 1013.8
20260904072815 20 28 0.0 0.0 0.00 0.00 0.00 84 1013.9
20260904071815 20 162 0.0 0.0 0.00 0.00 0.00 83 1013.9
20260904071535 20 276 0.0 0.0 0.00 0.00 0.00 83 1014.0
20260904070813 20 207 0.0 0.0 0.00 0.00 0.00 84 1014.0
20260904070313 20 201 0.0 0.0 0.00 0.00 0.00 84 1014.0
20260904065813 20 285 0.0 0.0 0.00 0.00 0.00 84 1013.9
20260904065313 20 149 0.0 0.0 0.00 0.00 0.00 84 1014.0
20260904064811 20 166 0.0 0.0 0.00 0.00 0.00 84 1014.1
20260904064312 20 207 0.0 0.0 0.00 0.00 0.00 84 1014.2
20260904063814 20 161 0.0 0.0 0.00 0.00 0.00 84 1014.3
20260904063311 20 129 0.0 0.0 0.00 0.00 0.00 84 1014.4
20260904063048 20 254 0.0 0.0 0.00 0.00 0.00 84 1014.4
20260904062532 20 221 0.0 0.0 0.00 0.00 0.00 84 1014.4
20260904061811 20 122 0.0 0.0 0.00 0.00 0.00 84 1014.5
20260904061310 20 255 0.0 0.0 0.00 0.00 0.00 84 1014.5
20260904060807 20 196 0.0 0.0 0.00 0.00 0.00 84 1014.5
20260904060307 20 107 0.0 0.0 0.00 0.00 0.00 84 1014.5
20260904055807 20 232 0.0 0.0 0.00 0.00 0.00 84 1014.5
20260904055308 20 145 0.0 0.0 0.00 0.00 0.00 84 1014.5
20260904054808 20 84 0.0 0.0 0.00 0.00 0.00 85 1014.5
20260904054307 19 112 0.0 0.0 0.00 0.00 0.00 85 1014.7
20260904053810 19 233 0.0 0.0 0.00 0.00 0.00 85 1014.8
20260904053308 19 186 0.0 0.0 0.00 0.00 0.00 85 1014.8
20260904052807 19 157 0.0 0.0 0.00 0.00 0.00 85 1014.8
20260904052308 19 253 0.0 0.0 0.00 0.00 0.00 85 1014.9
20260904052026 19 179 0.0 0.0 0.00 0.00 0.00 85 1014.9
20260904051307 19 194 0.0 0.0 0.00 0.00 0.00 85 1015.0
20260904051032 19 197 0.0 0.0 0.00 0.00 0.00 85 1014.9
20260904050307 19 280 0.0 0.0 0.00 0.00 0.00 85 1015.0
20260904045807 19 198 0.0 0.0 0.00 0.00 0.00 85 1015.0
20260904045532 19 202 0.0 0.0 0.00 0.00 0.00 85 1015.0
20260904044808 19 138 0.0 0.0 0.00 0.00 0.00 85 1014.9
20260904044307 19 166 0.0 0.0 0.00 0.00 0.00 85 1015.0
20260904043807 19 110 0.0 0.0 0.00 0.00 0.00 85 1015.0
20260904043310 19 269 0.0 0.0 0.00 0.00 0.00 85 1015.0
20260904042807 19 240 0.0 0.0 0.00 0.00 0.00 85 1015.0